| time (UTC) | temp C | wind direction | speed KPH | gust KPH | rain 1hr cm | rain 24hr cm | rain mn cm | humidity % | barometer mb |
| 20260906060022 | 21 | 273 | 0.0 | 0.0 | 0.00 | 0.00 | 0.00 | 93 | 1009.2 |
| 20260906054517 | 21 | 273 | 0.0 | 0.0 | 0.00 | 0.00 | 0.00 | 93 | 1009.4 |
| 20260906053014 | 22 | 273 | 0.0 | 0.0 | 0.00 | 0.00 | 0.00 | 92 | 1009.5 |
| 20260906051511 | 22 | 273 | 0.0 | 0.0 | 0.00 | 0.00 | 0.00 | 92 | 1009.7 |
| 20260906050007 | 22 | 273 | 0.0 | 0.0 | 0.00 | 0.00 | 0.00 | 92 | 1009.8 |
| 20260906044508 | 22 | 273 | 0.0 | 0.0 | 0.00 | 0.00 | 0.00 | 92 | 1009.7 |
| 20260906043005 | 22 | 273 | 0.0 | 0.0 | 0.00 | 0.00 | 0.00 | 91 | 1009.8 |
| 20260906041503 | 22 | 273 | 0.0 | 0.0 | 0.00 | 0.00 | 0.00 | 91 | 1009.6 |
| 20260906040002 | 22 | 273 | 0.0 | 0.0 | 0.00 | 0.00 | 0.00 | 91 | 1009.8 |
| 20260906034503 | 23 | 273 | 0.0 | 0.0 | 0.00 | 0.00 | 0.00 | 90 | 1009.8 |
| 20260906033105 | 23 | 273 | 0.0 | 0.0 | 0.00 | 0.00 | 0.00 | 90 | 1009.9 |
| 20260906031600 | 23 | 273 | 0.0 | 0.0 | 0.00 | 0.00 | 0.00 | 90 | 1010.0 |
| 20260906030108 | 23 | 273 | 0.0 | 0.0 | 0.00 | 0.00 | 0.00 | 90 | 1009.9 |
| 20260906024622 | 23 | 144 | 0.0 | 0.0 | 0.00 | 0.00 | 0.00 | 90 | 1010.0 |
| 20260906023059 | 23 | 204 | 0.0 | 0.0 | 0.00 | 0.00 | 0.00 | 90 | 1010.0 |
| 20260906021559 | 23 | 223 | 0.0 | 0.0 | 0.00 | 0.00 | 0.00 | 90 | 1009.8 |
| 20260906020058 | 23 | 223 | 0.0 | 0.0 | 0.00 | 0.00 | 0.00 | 89 | 1009.6 |
| 20260906014608 | 23 | 222 | 0.0 | 0.0 | 0.00 | 0.00 | 0.00 | 89 | 1009.3 |
| 20260906013056 | 23 | 223 | 0.0 | 0.0 | 0.00 | 0.00 | 0.00 | 88 | 1009.2 |
| 20260906011556 | 23 | 223 | 0.0 | 0.0 | 0.00 | 0.00 | 0.00 | 88 | 1009.2 |
| 20260906010106 | 23 | 223 | 0.0 | 0.0 | 0.00 | 0.00 | 0.00 | 87 | 1009.1 |
| 20260906004555 | 24 | 223 | 0.0 | 0.0 | 0.00 | 0.00 | 0.00 | 86 | 1009.0 |
| 20260906003110 | 25 | 223 | 0.0 | 0.0 | 0.00 | 0.00 | 0.00 | 84 | 1008.9 |
| 20260906001554 | 25 | 212 | 0.0 | 0.0 | 0.00 | 0.00 | 0.00 | 84 | 1009.0 |
| 20260905234558 | 26 | 254 | 0.0 | 0.0 | 0.00 | 0.00 | 0.00 | 82 | 1008.3 |
| 20260905233053 | 26 | 254 | 0.0 | 0.0 | 0.00 | 0.00 | 0.00 | 80 | 1008.1 |
| 20260905231550 | 27 | 226 | 0.0 | 0.0 | 0.00 | 0.00 | 0.00 | 79 | 1008.2 |
| 20260905230152 | 27 | 38 | 0.0 | 0.0 | 0.00 | 0.00 | 0.00 | 79 | 1008.5 |
| 20260905224525 | 27 | 38 | 0.0 | 0.0 | 0.00 | 0.00 | 0.00 | 76 | 1008.5 |
| 20260905223014 | 27 | 319 | 0.0 | 0.0 | 0.00 | 0.00 | 0.00 | 77 | 1008.5 |
| 20260905221513 | 27 | 319 | 1.6 | 0.0 | 0.00 | 0.00 | 0.00 | 78 | 1008.4 |
| 20260905220016 | 27 | 319 | 0.0 | 0.0 | 0.00 | 0.00 | 0.00 | 76 | 1008.5 |
| 20260905214511 | 27 | 36 | 0.0 | 0.0 | 0.00 | 0.00 | 0.00 | 75 | 1008.7 |
| 20260905213026 | 27 | 96 | 1.6 | 0.0 | 0.00 | 0.00 | 0.00 | 73 | 1008.7 |
| 20260905211510 | 27 | 90 | 1.6 | 0.0 | 0.00 | 0.00 | 0.00 | 74 | 1009.0 |
| 20260905210012 | 27 | 13 | 3.2 | 0.0 | 0.00 | 0.00 | 0.00 | 72 | 1009.0 |
| 20260905204512 | 26 | 346 | 4.8 | 0.0 | 0.00 | 0.00 | 0.00 | 72 | 1009.0 |
| 20260905203009 | 26 | 337 | 3.2 | 0.0 | 0.00 | 0.00 | 0.00 | 74 | 1008.9 |
| 20260905201509 | 26 | 360 | 1.6 | 0.0 | 0.00 | 0.00 | 0.00 | 75 | 1008.9 |
| 20260905200008 | 26 | 355 | 1.6 | 0.0 | 0.00 | 0.00 | 0.00 | 75 | 1009.4 |
| 20260905194507 | 26 | 208 | 1.6 | 0.0 | 0.00 | 0.00 | 0.00 | 75 | 1009.1 |
| 20260905193007 | 26 | 272 | 3.2 | 0.0 | 0.00 | 0.00 | 0.00 | 74 | 1009.6 |
| 20260905191506 | 27 | 350 | 6.4 | 0.0 | 0.00 | 0.00 | 0.00 | 74 | 1010.4 |
| 20260905190010 | 28 | 277 | 6.4 | 0.0 | 0.00 | 0.00 | 0.00 | 72 | 1009.6 |
| 20260905184506 | 32 | 355 | 6.4 | 0.0 | 0.00 | 0.00 | 0.00 | 64 | 1009.4 |
| 20260905183005 | 33 | 9 | 3.2 | 0.0 | 0.00 | 0.00 | 0.00 | 57 | 1008.8 |
| 20260905181503 | 34 | 295 | 3.2 | 0.0 | 0.00 | 0.00 | 0.00 | 54 | 1009.3 |
| 20260905180002 | 35 | 263 | 3.2 | 0.0 | 0.00 | 0.00 | 0.00 | 52 | 1009.1 |
| 20260905174501 | 35 | 28 | 3.2 | 0.0 | 0.00 | 0.00 | 0.00 | 56 | 1009.1 |
| 20260905173100 | 35 | 355 | 3.2 | 0.0 | 0.00 | 0.00 | 0.00 | 56 | 1009.5 |
| 20260905171559 | 35 | 298 | 3.2 | 0.0 | 0.00 | 0.00 | 0.00 | 61 | 1009.5 |
| 20260905170059 | 35 | 316 | 4.8 | 0.0 | 0.00 | 0.00 | 0.00 | 59 | 1009.9 |
| 20260905164555 | 35 | 256 | 6.4 | 0.0 | 0.00 | 0.00 | 0.00 | 57 | 1010.3 |
| 20260905163051 | 34 | 225 | 4.8 | 0.0 | 0.00 | 0.00 | 0.00 | 58 | 1010.4 |
| 20260905161550 | 34 | 308 | 3.2 | 0.0 | 0.00 | 0.00 | 0.00 | 58 | 1010.5 |
| 20260905160051 | 34 | 59 | 3.2 | 0.0 | 0.00 | 0.00 | 0.00 | 61 | 1010.6 |
| 20260905154555 | 34 | 360 | 4.8 | 0.0 | 0.00 | 0.00 | 0.00 | 60 | 1010.7 |
| 20260905153046 | 33 | 45 | 3.2 | 0.0 | 0.00 | 0.00 | 0.00 | 62 | 1010.8 |
| 20260905151547 | 33 | 328 | 3.2 | 0.0 | 0.00 | 0.00 | 0.00 | 63 | 1010.8 |
| 20260905150049 | 33 | 355 | 1.6 | 0.0 | 0.00 | 0.00 | 0.00 | 67 | 1010.8 |
| 20260905144547 | 33 | 132 | 1.6 | 0.0 | 0.00 | 0.00 | 0.00 | 66 | 1010.8 |
| 20260905143049 | 32 | 73 | 0.0 | 0.0 | 0.00 | 0.00 | 0.00 | 69 | 1010.9 |
| 20260905141535 | 31 | 355 | 0.0 | 0.0 | 0.00 | 0.00 | 0.00 | 74 | 1011.0 |
| 20260905140030 | 30 | 195 | 1.6 | 0.0 | 0.00 | 0.00 | 0.00 | 76 | 1011.1 |
| 20260905134527 | 30 | 113 | 0.0 | 0.0 | 0.00 | 0.00 | 0.00 | 77 | 1011.3 |
| 20260905133023 | 28 | 261 | 0.0 | 0.0 | 0.00 | 0.00 | 0.00 | 83 | 1011.4 |
| 20260905131528 | 27 | 257 | 0.0 | 0.0 | 0.00 | 0.00 | 0.00 | 86 | 1011.4 |
| 20260905130015 | 26 | 355 | 0.0 | 0.0 | 0.00 | 0.00 | 0.00 | 90 | 1011.5 |
| 20260905124511 | 24 | 348 | 1.6 | 0.0 | 0.00 | 0.00 | 0.00 | 97 | 1011.4 |
| 20260905123009 | 23 | 285 | 1.6 | 0.0 | 0.00 | 0.00 | 0.00 | 98 | 1011.3 |
| 20260905121510 | 23 | 285 | 0.0 | 0.0 | 0.00 | 0.00 | 0.00 | 98 | 1011.2 |
| 20260905120007 | 22 | 211 | 0.0 | 0.0 | 0.00 | 0.00 | 0.00 | 97 | 1011.1 |
| 20260905114508 | 22 | 211 | 0.0 | 0.0 | 0.00 | 0.00 | 0.00 | 97 | 1010.9 |
| 20260905113007 | 22 | 211 | 0.0 | 0.0 | 0.00 | 0.00 | 0.00 | 96 | 1010.8 |
| 20260905111506 | 22 | 211 | 0.0 | 0.0 | 0.00 | 0.00 | 0.00 | 96 | 1010.7 |
| 20260905104544 | 22 | 211 | 0.0 | 0.0 | 0.00 | 0.00 | 0.00 | 96 | 1010.4 |
| 20260905103044 | 22 | 211 | 0.0 | 0.0 | 0.00 | 0.00 | 0.00 | 96 | 1010.2 |
| 20260905101546 | 22 | 211 | 0.0 | 0.0 | 0.00 | 0.00 | 0.00 | 95 | 1010.1 |
| 20260905100042 | 22 | 211 | 0.0 | 0.0 | 0.00 | 0.00 | 0.00 | 95 | 1010.0 |
| 20260905094541 | 22 | 211 | 0.0 | 0.0 | 0.00 | 0.00 | 0.00 | 95 | 1010.1 |
| 20260905093042 | 22 | 211 | 0.0 | 0.0 | 0.00 | 0.00 | 0.00 | 95 | 1010.1 |
| 20260905091541 | 22 | 211 | 0.0 | 0.0 | 0.00 | 0.00 | 0.00 | 95 | 1010.1 |
| 20260905090038 | 22 | 211 | 0.0 | 0.0 | 0.00 | 0.00 | 0.00 | 94 | 1010.1 |
| 20260905084536 | 22 | 211 | 0.0 | 0.0 | 0.00 | 0.00 | 0.00 | 94 | 1010.2 |
| 20260905083039 | 22 | 211 | 0.0 | 0.0 | 0.00 | 0.00 | 0.00 | 94 | 1010.4 |
| 20260905081535 | 22 | 211 | 0.0 | 0.0 | 0.00 | 0.00 | 0.00 | 94 | 1010.4 |
| 20260905080042 | 22 | 211 | 0.0 | 0.0 | 0.00 | 0.00 | 0.00 | 94 | 1010.6 |
| 20260905074531 | 22 | 211 | 0.0 | 0.0 | 0.00 | 0.00 | 0.00 | 94 | 1010.7 |
| 20260905073030 | 22 | 211 | 0.0 | 0.0 | 0.00 | 0.00 | 0.00 | 93 | 1010.8 |
| 20260905071531 | 22 | 211 | 0.0 | 0.0 | 0.00 | 0.00 | 0.00 | 94 | 1010.9 |
| 20260905070033 | 22 | 211 | 0.0 | 0.0 | 0.00 | 0.00 | 0.00 | 93 | 1011.0 |
| 20260905064532 | 22 | 211 | 0.0 | 0.0 | 0.00 | 0.00 | 0.00 | 93 | 1010.9 |
| 20260905063024 | 23 | 211 | 0.0 | 0.0 | 0.00 | 0.00 | 0.00 | 93 | 1011.0 |
| 20260905061522 | 23 | 211 | 0.0 | 0.0 | 0.00 | 0.00 | 0.00 | 93 | 1011.2 |